FLOCK 4V-26 (46825 NORAD) Tracking and Keplerian Element Data

This shows tracking and keplerian element data for the satellite.

Feedback or suggestion? Click here.




ElementValue
Catalog46825
NameFLOCK 4V-26
Epoch Orbit422
Epoch Day330.75755326
Epoch Year2020
RAAN42.3468
Inclination97.4662
Eccentricity0.0006166
Argument of Perigee333.4743
Mean Anonmoly26.6168
Mean Motion15.14825749
Decay Rate1.071E-05
L11 46825U 20061BQ 20330.75755326 .00001071 00000-0 61139-4 0 9995
L22 46825 97.4662 42.3468 0006166 333.4743 26.6168 15.14825749 4227

Live tracking and technical data element details for FLOCK 4V-26 (NORAD 46825). FLOCK 4V-26 can be tracked NOW for your location showing map with azimuth and elevation plus other details from your city location.

Track the satellite on the map from your city or location and see movement details for azimuth, elevation, latitude, longitude, range, height, and movement on the map or in text.







IsCatalogInMostPopularTable: catalog: 46825, numindb: 12
Update: records affected: 1



GetName: 46825 FLOCK 4V-26

Hit Count: updated at: Thu, 26 Nov 2020 17:50:31 GMT